Year,Month,Day,Hour,Minute,Value (Times are PST for temperature in C)
2009,05,29,00,00,12.40
2009,05,29,00,01,12.30
2009,05,29,00,02,12.30
2009,05,29,00,03,12.20
2009,05,29,00,04,12.20
2009,05,29,00,05,12.10
2009,05,29,00,06,12.10
2009,05,29,00,07,12.10
2009,05,29,00,08,12.00
2009,05,29,00,09,12.00
2009,05,29,00,10,11.90
2009,05,29,00,11,12.00
2009,05,29,00,12,12.10
2009,05,29,00,13,12.10
2009,05,29,00,14,12.20
2009,05,29,00,15,12.30
2009,05,29,00,16,12.50
2009,05,29,00,17,12.50
2009,05,29,00,18,12.60
2009,05,29,00,19,12.50
2009,05,29,00,20,12.50
2009,05,29,00,21,12.50
2009,05,29,00,22,12.40
2009,05,29,00,23,12.40
2009,05,29,00,24,12.30
2009,05,29,00,25,12.20
2009,05,29,00,26,12.20
2009,05,29,00,27,12.10
2009,05,29,00,28,12.10
2009,05,29,00,29,12.00
2009,05,29,00,30,12.00
2009,05,29,00,31,12.00
2009,05,29,00,32,12.00
2009,05,29,00,33,11.90
2009,05,29,00,34,11.90
2009,05,29,00,35,11.90
2009,05,29,00,36,12.00
2009,05,29,00,37,12.00
2009,05,29,00,38,12.10
2009,05,29,00,39,12.10
2009,05,29,00,40,12.20
2009,05,29,00,41,12.20
2009,05,29,00,42,12.20
2009,05,29,00,43,12.30
2009,05,29,00,44,12.30
2009,05,29,00,45,12.30
2009,05,29,00,46,12.40
2009,05,29,00,47,12.40
2009,05,29,00,48,12.40
2009,05,29,00,49,12.40
2009,05,29,00,50,12.40
2009,05,29,00,51,12.40
2009,05,29,00,52,12.30
2009,05,29,00,53,12.20
2009,05,29,00,54,12.20
2009,05,29,00,55,12.10
2009,05,29,00,56,12.10
2009,05,29,00,57,12.10
2009,05,29,00,58,12.10
2009,05,29,00,59,12.10
2009,05,29,01,00,12.10
2009,05,29,01,01,12.10
2009,05,29,01,02,12.10
2009,05,29,01,03,12.10
2009,05,29,01,04,12.10
2009,05,29,01,05,12.10
2009,05,29,01,06,12.10
2009,05,29,01,07,12.10
2009,05,29,01,08,12.10
2009,05,29,01,09,12.10
2009,05,29,01,10,12.10
2009,05,29,01,11,12.10
2009,05,29,01,12,12.10
2009,05,29,01,13,12.10
2009,05,29,01,14,12.10
2009,05,29,01,15,12.20
2009,05,29,01,16,12.30
2009,05,29,01,17,12.40
2009,05,29,01,18,12.50
2009,05,29,01,19,12.60
2009,05,29,01,20,12.60
2009,05,29,01,21,12.70
2009,05,29,01,22,12.60
2009,05,29,01,23,12.60
2009,05,29,01,24,12.50
2009,05,29,01,25,12.50
2009,05,29,01,26,12.40
2009,05,29,01,27,12.30
2009,05,29,01,28,12.20
2009,05,29,01,29,12.20
2009,05,29,01,30,12.10
2009,05,29,01,31,12.10
2009,05,29,01,32,12.00
2009,05,29,01,33,12.00
2009,05,29,01,34,11.90
2009,05,29,01,35,11.90
2009,05,29,01,36,11.80
2009,05,29,01,37,11.80
2009,05,29,01,38,11.80
2009,05,29,01,39,11.70
2009,05,29,01,40,11.70
2009,05,29,01,41,11.70
2009,05,29,01,42,11.70
2009,05,29,01,43,11.60
2009,05,29,01,44,11.60
2009,05,29,01,45,11.60
2009,05,29,01,46,11.60
2009,05,29,01,47,11.60
2009,05,29,01,48,11.60
2009,05,29,01,49,11.60
2009,05,29,01,50,11.60
2009,05,29,01,51,11.60
2009,05,29,01,52,11.60
2009,05,29,01,53,11.60
2009,05,29,01,54,11.50
2009,05,29,01,55,11.50
2009,05,29,01,56,11.50
2009,05,29,01,57,11.40
2009,05,29,01,58,11.40
2009,05,29,01,59,11.40
2009,05,29,02,00,11.40
2009,05,29,02,01,11.40
2009,05,29,02,02,11.40
2009,05,29,02,03,11.40
2009,05,29,02,04,11.40
2009,05,29,02,05,11.30
2009,05,29,02,06,11.30
2009,05,29,02,07,11.30
2009,05,29,02,08,11.30
2009,05,29,02,09,11.30
2009,05,29,02,10,11.30
2009,05,29,02,11,11.30
2009,05,29,02,12,11.30
2009,05,29,02,13,11.30
2009,05,29,02,14,11.30
2009,05,29,02,15,11.30
2009,05,29,02,16,11.30
2009,05,29,02,17,11.30
2009,05,29,02,18,11.40
2009,05,29,02,19,11.40
2009,05,29,02,20,11.40
2009,05,29,02,21,11.40
2009,05,29,02,22,11.40
2009,05,29,02,23,11.40
2009,05,29,02,24,11.40
2009,05,29,02,25,11.40
2009,05,29,02,26,11.40
2009,05,29,02,27,11.50
2009,05,29,02,28,11.50
2009,05,29,02,29,11.50
2009,05,29,02,30,11.50
2009,05,29,02,31,11.50
2009,05,29,02,32,11.50
2009,05,29,02,33,11.50
2009,05,29,02,34,11.50
2009,05,29,02,35,11.40
2009,05,29,02,36,11.40
2009,05,29,02,37,11.30
2009,05,29,02,38,11.30
2009,05,29,02,39,11.30
2009,05,29,02,40,11.20
2009,05,29,02,41,11.20
2009,05,29,02,42,11.20
2009,05,29,02,43,11.20
2009,05,29,02,44,11.10
2009,05,29,02,45,11.10
2009,05,29,02,46,11.10
2009,05,29,02,47,11.10
2009,05,29,02,48,11.00
2009,05,29,02,49,11.00
2009,05,29,02,50,10.90
2009,05,29,02,51,10.90
2009,05,29,02,52,10.90
2009,05,29,02,53,10.80
2009,05,29,02,54,10.80
2009,05,29,02,55,10.80
2009,05,29,02,56,10.70
2009,05,29,02,57,10.70
2009,05,29,02,58,10.70
2009,05,29,02,59,10.70
2009,05,29,03,00,10.70
2009,05,29,03,01,10.70
2009,05,29,03,02,10.70
2009,05,29,03,03,10.60
2009,05,29,03,04,10.60
2009,05,29,03,05,10.60
2009,05,29,03,06,10.60
2009,05,29,03,07,10.50
2009,05,29,03,08,10.50
2009,05,29,03,09,10.40
2009,05,29,03,10,10.40
2009,05,29,03,11,10.40
2009,05,29,03,12,10.40
2009,05,29,03,13,10.50
2009,05,29,03,14,10.60
2009,05,29,03,15,10.70
2009,05,29,03,16,10.70
2009,05,29,03,17,10.80
2009,05,29,03,18,10.90
2009,05,29,03,19,11.00
2009,05,29,03,20,11.10
2009,05,29,03,21,11.20
2009,05,29,03,22,11.30
2009,05,29,03,23,11.30
2009,05,29,03,24,11.40
2009,05,29,03,25,11.40
2009,05,29,03,26,11.40
2009,05,29,03,27,11.50
2009,05,29,03,28,11.50
2009,05,29,03,29,11.60
2009,05,29,03,30,11.60
2009,05,29,03,31,11.70
2009,05,29,03,32,11.80
2009,05,29,03,33,11.80
2009,05,29,03,34,11.90
2009,05,29,03,35,11.90
2009,05,29,03,36,12.00
2009,05,29,03,37,12.10
2009,05,29,03,38,12.10
2009,05,29,03,39,12.20
2009,05,29,03,40,12.30
2009,05,29,03,41,12.40
2009,05,29,03,42,12.50
2009,05,29,03,43,12.60
2009,05,29,03,44,12.70
2009,05,29,03,45,12.80
2009,05,29,03,46,12.80
2009,05,29,03,47,12.80
2009,05,29,03,48,12.80
2009,05,29,03,49,12.80
2009,05,29,03,50,12.70
2009,05,29,03,51,12.50
2009,05,29,03,52,12.40
2009,05,29,03,53,12.20
2009,05,29,03,54,12.10
2009,05,29,03,55,12.00
2009,05,29,03,56,11.90
2009,05,29,03,57,11.80
2009,05,29,03,58,11.70
2009,05,29,03,59,11.60
2009,05,29,04,00,11.60
2009,05,29,04,01,11.50
2009,05,29,04,02,11.40
2009,05,29,04,03,11.30
2009,05,29,04,05,11.30
2009,05,29,04,09,11.30
2009,05,29,04,10,11.30
2009,05,29,04,12,11.40
2009,05,29,04,15,11.40
2009,05,29,04,16,11.40
2009,05,29,04,18,11.30
2009,05,29,04,19,11.30
2009,05,29,04,21,11.20
2009,05,29,04,22,11.20
2009,05,29,04,23,11.20
2009,05,29,04,24,11.20
2009,05,29,04,26,11.30
2009,05,29,04,27,11.30
2009,05,29,04,28,11.30
2009,05,29,04,29,11.30
2009,05,29,04,31,11.30
2009,05,29,04,33,11.20
2009,05,29,04,34,11.10
2009,05,29,04,35,11.10
2009,05,29,04,36,11.00
2009,05,29,04,37,10.90
2009,05,29,04,38,10.80
2009,05,29,04,39,10.80
2009,05,29,04,41,10.80
2009,05,29,04,42,10.70
2009,05,29,04,43,10.60
2009,05,29,04,44,10.60
2009,05,29,04,45,10.60
2009,05,29,04,46,10.50
2009,05,29,04,47,10.40
2009,05,29,04,48,10.40
2009,05,29,04,49,10.40
2009,05,29,04,50,10.40
2009,05,29,04,51,10.40
2009,05,29,04,52,10.40
2009,05,29,04,53,10.30
2009,05,29,04,54,10.30
2009,05,29,04,55,10.30
2009,05,29,04,56,10.30
2009,05,29,04,57,10.30
2009,05,29,04,58,10.20
2009,05,29,04,59,10.20
2009,05,29,05,00,10.20
2009,05,29,05,01,10.20
2009,05,29,05,02,10.20
2009,05,29,05,03,10.10
2009,05,29,05,04,10.10
2009,05,29,05,05,10.10
2009,05,29,05,06,10.10
2009,05,29,05,07,10.10
2009,05,29,05,08,10.10
2009,05,29,05,09,10.10
2009,05,29,05,10,10.10
2009,05,29,05,11,10.00
2009,05,29,05,12,10.00
2009,05,29,05,13,10.00
2009,05,29,05,14,10.00
2009,05,29,05,15,10.00
2009,05,29,05,16,10.00
2009,05,29,05,17,10.00
2009,05,29,05,18,9.90
2009,05,29,05,19,9.90
2009,05,29,05,20,9.90
2009,05,29,05,21,9.90
2009,05,29,05,22,9.90
2009,05,29,05,23,9.90
2009,05,29,05,24,9.90
2009,05,29,05,25,9.90
2009,05,29,05,26,9.90
2009,05,29,05,27,9.80
2009,05,29,05,28,9.80
2009,05,29,05,29,9.80
2009,05,29,05,30,9.80
2009,05,29,05,31,9.80
2009,05,29,05,32,9.80
2009,05,29,05,33,9.90
2009,05,29,05,34,9.90
2009,05,29,05,35,10.00
2009,05,29,05,36,10.00
2009,05,29,05,37,10.00
2009,05,29,05,38,10.10
2009,05,29,05,39,10.10
2009,05,29,05,40,10.10
2009,05,29,05,41,10.10
2009,05,29,05,42,10.10
2009,05,29,05,43,10.10
2009,05,29,05,44,10.10
2009,05,29,05,45,10.20
2009,05,29,05,46,10.20
2009,05,29,05,47,10.20
2009,05,29,05,48,10.20
2009,05,29,05,49,10.30
2009,05,29,05,50,10.30
2009,05,29,05,51,10.30
2009,05,29,05,52,10.30
2009,05,29,05,53,10.30
2009,05,29,05,54,10.30
2009,05,29,05,55,10.30
2009,05,29,05,56,10.30
2009,05,29,05,57,10.40
2009,05,29,05,58,10.40
2009,05,29,05,59,10.40
2009,05,29,06,00,10.40
2009,05,29,06,01,10.40
2009,05,29,06,02,10.40
2009,05,29,06,03,10.40
2009,05,29,06,04,10.40
2009,05,29,06,05,10.50
2009,05,29,06,06,10.50
2009,05,29,06,07,10.60
2009,05,29,06,08,10.60
2009,05,29,06,09,10.60
2009,05,29,06,10,10.60
2009,05,29,06,11,10.70
2009,05,29,06,12,10.70
2009,05,29,06,13,10.70
2009,05,29,06,14,10.70
2009,05,29,06,15,10.70
2009,05,29,06,16,10.70
2009,05,29,06,17,10.80
2009,05,29,06,18,10.80
2009,05,29,06,19,10.80
2009,05,29,06,20,10.80
2009,05,29,06,21,10.90
2009,05,29,06,22,10.90
2009,05,29,06,23,10.90
2009,05,29,06,24,10.90
2009,05,29,06,25,10.90
2009,05,29,06,26,11.00
2009,05,29,06,27,11.00
2009,05,29,06,28,11.00
2009,05,29,06,29,11.00
2009,05,29,06,30,11.00
2009,05,29,06,31,11.10
2009,05,29,06,32,11.10
2009,05,29,06,33,11.20
2009,05,29,06,34,11.20
2009,05,29,06,35,11.30
2009,05,29,06,36,11.50
2009,05,29,06,37,11.60
2009,05,29,06,38,11.70
2009,05,29,06,39,11.80
2009,05,29,06,40,11.90
2009,05,29,06,41,12.00
2009,05,29,06,42,12.10
2009,05,29,06,43,12.20
2009,05,29,06,44,12.30
2009,05,29,06,45,12.40
2009,05,29,06,46,12.40
2009,05,29,06,47,12.50
2009,05,29,06,48,12.60
2009,05,29,06,49,12.60
2009,05,29,06,50,12.70
2009,05,29,06,51,12.70
2009,05,29,06,52,12.70
2009,05,29,06,53,12.70
2009,05,29,06,54,12.80
2009,05,29,06,55,12.80
2009,05,29,06,56,12.80
2009,05,29,06,57,12.80
2009,05,29,06,58,12.80
2009,05,29,06,59,12.90
2009,05,29,07,00,12.90
2009,05,29,07,01,13.00
2009,05,29,07,02,13.10
2009,05,29,07,03,13.20
2009,05,29,07,04,13.20
2009,05,29,07,05,13.30
2009,05,29,07,06,13.40
2009,05,29,07,07,13.60
2009,05,29,07,08,13.70
2009,05,29,07,09,13.80
2009,05,29,07,10,13.90
2009,05,29,07,11,13.90
2009,05,29,07,12,14.00
2009,05,29,07,13,14.10
2009,05,29,07,14,14.10
2009,05,29,07,15,14.20
2009,05,29,07,16,14.30
2009,05,29,07,17,14.50
2009,05,29,07,18,14.60
2009,05,29,07,19,14.80
2009,05,29,07,20,15.00
2009,05,29,07,21,15.00
2009,05,29,07,22,15.00
2009,05,29,07,23,15.10
2009,05,29,07,24,15.20
2009,05,29,07,25,15.30
2009,05,29,07,26,15.40
2009,05,29,07,27,15.40
2009,05,29,07,28,15.50
2009,05,29,07,29,15.60
2009,05,29,07,30,15.60
2009,05,29,07,31,15.70
2009,05,29,07,32,15.70
2009,05,29,07,33,15.80
2009,05,29,07,34,15.90
2009,05,29,07,35,15.90
2009,05,29,07,36,15.80
2009,05,29,07,37,15.80
2009,05,29,07,38,15.80
2009,05,29,07,39,15.80
2009,05,29,07,40,15.80
2009,05,29,07,41,15.90
2009,05,29,07,42,15.90
2009,05,29,07,43,15.90
2009,05,29,07,44,15.90
2009,05,29,07,45,15.90
2009,05,29,07,46,15.90
2009,05,29,07,47,15.90
2009,05,29,07,48,15.90
2009,05,29,07,49,15.90
2009,05,29,07,50,15.90
2009,05,29,07,51,15.90
2009,05,29,07,52,15.90
2009,05,29,07,53,15.90
2009,05,29,07,54,16.20
2009,05,29,07,55,16.30
2009,05,29,07,56,16.30
2009,05,29,07,57,16.40
2009,05,29,07,58,16.50
2009,05,29,07,59,16.60
2009,05,29,08,00,16.70
2009,05,29,08,01,16.80
2009,05,29,08,02,16.80
2009,05,29,08,03,16.80
2009,05,29,08,04,16.90
2009,05,29,08,05,17.00
2009,05,29,08,06,17.10
2009,05,29,08,07,17.10
2009,05,29,08,08,17.10
2009,05,29,08,09,17.10
2009,05,29,08,10,17.10
2009,05,29,08,11,17.10
2009,05,29,08,12,17.10
2009,05,29,08,13,17.00
2009,05,29,08,14,17.00
2009,05,29,08,15,17.00
2009,05,29,08,16,17.00
2009,05,29,08,17,17.00
2009,05,29,08,18,17.10
2009,05,29,08,19,17.10
2009,05,29,08,20,17.20
2009,05,29,08,21,17.30
2009,05,29,08,22,17.30
2009,05,29,08,23,17.40
2009,05,29,08,24,17.40
2009,05,29,08,25,17.50
2009,05,29,08,26,17.50
2009,05,29,08,27,17.50
2009,05,29,08,28,17.60
2009,05,29,08,29,17.70
2009,05,29,08,30,17.70
2009,05,29,08,31,17.80
2009,05,29,08,32,17.90
2009,05,29,08,33,17.90
2009,05,29,08,34,18.00
2009,05,29,08,35,18.10
2009,05,29,08,36,18.20
2009,05,29,08,37,18.20
2009,05,29,08,38,18.30
2009,05,29,08,39,18.40
2009,05,29,08,40,18.40
2009,05,29,08,41,18.50
2009,05,29,08,42,18.60
2009,05,29,08,43,18.60
2009,05,29,08,44,18.50
2009,05,29,08,45,18.40
2009,05,29,08,46,18.40
2009,05,29,08,47,18.30
2009,05,29,08,48,18.30
2009,05,29,08,49,18.20
2009,05,29,08,50,18.10
2009,05,29,08,51,18.00
2009,05,29,08,52,18.00
2009,05,29,08,53,18.00
2009,05,29,08,54,18.00
2009,05,29,08,55,18.00
2009,05,29,08,56,18.00
2009,05,29,08,57,18.00
2009,05,29,08,58,18.10
2009,05,29,08,59,18.20
2009,05,29,09,00,18.20
2009,05,29,09,01,18.30
2009,05,29,09,02,18.30
2009,05,29,09,03,18.40
2009,05,29,09,04,18.40
2009,05,29,09,05,18.50
2009,05,29,09,06,18.50
2009,05,29,09,07,18.60
2009,05,29,09,08,18.60
2009,05,29,09,09,18.50
2009,05,29,09,10,18.50
2009,05,29,09,11,18.40
2009,05,29,09,12,18.40
2009,05,29,09,13,18.30
2009,05,29,09,14,18.30
2009,05,29,09,15,18.20
2009,05,29,09,16,18.10
2009,05,29,09,17,18.10
2009,05,29,09,18,18.10
2009,05,29,09,19,18.20
2009,05,29,09,20,18.20
2009,05,29,09,21,18.30
2009,05,29,09,22,18.30
2009,05,29,09,23,18.40
2009,05,29,09,24,18.40
2009,05,29,09,25,18.40
2009,05,29,09,26,18.50
2009,05,29,09,27,18.50
2009,05,29,09,28,18.60
2009,05,29,09,29,18.60
2009,05,29,09,30,18.70
2009,05,29,09,31,18.80
2009,05,29,09,32,18.90
2009,05,29,09,33,19.00
2009,05,29,09,34,19.10
2009,05,29,09,35,19.10
2009,05,29,09,36,19.20
2009,05,29,09,37,19.20
2009,05,29,09,38,19.20
2009,05,29,09,39,19.20
2009,05,29,09,40,19.30
2009,05,29,09,41,19.40
2009,05,29,09,42,19.50
2009,05,29,09,43,19.60
2009,05,29,09,44,19.60
2009,05,29,09,45,19.70
2009,05,29,09,46,19.80
2009,05,29,09,47,19.90
2009,05,29,09,48,19.90
2009,05,29,09,49,19.80
2009,05,29,09,50,19.80
2009,05,29,09,51,19.80
2009,05,29,09,52,19.70
2009,05,29,09,53,19.60
2009,05,29,09,54,19.50
2009,05,29,09,55,19.40
2009,05,29,09,56,19.30
2009,05,29,09,57,19.30
2009,05,29,09,58,19.20
2009,05,29,09,59,19.20
2009,05,29,10,00,19.10
2009,05,29,10,01,19.20
2009,05,29,10,02,19.20
2009,05,29,10,03,19.20
2009,05,29,10,04,19.30
2009,05,29,10,05,19.30
2009,05,29,10,06,19.40
2009,05,29,10,07,19.50
2009,05,29,10,08,19.60
2009,05,29,10,09,19.60
2009,05,29,10,10,19.60
2009,05,29,10,11,19.60
2009,05,29,10,12,19.60
2009,05,29,10,13,19.60
2009,05,29,10,14,19.60
2009,05,29,10,15,19.50
2009,05,29,10,16,19.40
2009,05,29,10,17,19.40
2009,05,29,10,18,19.50
2009,05,29,10,19,19.60
2009,05,29,10,20,19.70
2009,05,29,10,21,19.80
2009,05,29,10,22,19.90
2009,05,29,10,23,19.90
2009,05,29,10,24,19.90
2009,05,29,10,25,19.70
2009,05,29,10,26,19.60
2009,05,29,10,27,19.50
2009,05,29,10,28,19.40
2009,05,29,10,29,19.40
2009,05,29,10,30,19.40
2009,05,29,10,31,19.40
2009,05,29,10,32,19.30
2009,05,29,10,33,19.30
2009,05,29,10,34,19.40
2009,05,29,10,35,19.50
2009,05,29,10,36,19.60
2009,05,29,10,37,19.70
2009,05,29,10,38,19.70
2009,05,29,10,39,19.70
2009,05,29,10,40,19.70
2009,05,29,10,41,19.70
2009,05,29,10,42,19.70
2009,05,29,10,43,19.60
2009,05,29,10,44,19.60
2009,05,29,10,45,19.60
2009,05,29,10,46,19.70
2009,05,29,10,47,19.70
2009,05,29,10,48,19.70
2009,05,29,10,49,19.70
2009,05,29,10,50,19.70
2009,05,29,10,51,19.80
2009,05,29,10,52,19.80
2009,05,29,10,53,19.80
2009,05,29,10,54,19.80
2009,05,29,10,55,19.80
2009,05,29,10,56,19.90
2009,05,29,10,57,19.80
2009,05,29,10,58,19.80
2009,05,29,10,59,19.80
2009,05,29,11,00,19.80
2009,05,29,11,01,19.90
2009,05,29,11,02,19.90
2009,05,29,11,03,19.90
2009,05,29,11,04,19.90
2009,05,29,11,05,19.90
2009,05,29,11,06,19.90
2009,05,29,11,07,20.00
2009,05,29,11,08,20.00
2009,05,29,11,09,20.10
2009,05,29,11,10,20.00
2009,05,29,11,11,20.00
2009,05,29,11,12,20.10
2009,05,29,11,13,20.20
2009,05,29,11,14,20.30
2009,05,29,11,15,20.40
2009,05,29,11,16,20.60
2009,05,29,11,17,20.70
2009,05,29,11,18,20.80
2009,05,29,11,19,20.70
2009,05,29,11,20,20.70
2009,05,29,11,21,20.70
2009,05,29,11,22,20.70
2009,05,29,11,23,20.60
2009,05,29,11,24,20.60
2009,05,29,11,25,20.60
2009,05,29,11,26,20.50
2009,05,29,11,27,20.50
2009,05,29,11,28,20.50
2009,05,29,11,29,20.40
2009,05,29,11,30,20.30
2009,05,29,11,31,20.20
2009,05,29,11,32,20.20
2009,05,29,11,33,20.10
2009,05,29,11,34,20.00
2009,05,29,11,35,19.80
2009,05,29,11,36,19.80
2009,05,29,11,37,19.70
2009,05,29,11,38,19.70
2009,05,29,11,39,19.50
2009,05,29,11,40,19.40
2009,05,29,11,41,19.40
2009,05,29,11,42,19.30
2009,05,29,11,43,19.30
2009,05,29,11,44,19.40
2009,05,29,11,45,19.40
2009,05,29,11,46,19.30
2009,05,29,11,47,19.40
2009,05,29,11,48,19.40
2009,05,29,11,49,19.50
2009,05,29,11,50,19.50
2009,05,29,11,51,19.50
2009,05,29,11,52,19.50
2009,05,29,11,53,19.50
2009,05,29,11,54,19.50
2009,05,29,11,55,19.50
2009,05,29,11,56,19.40
2009,05,29,11,57,19.40
2009,05,29,11,58,19.40
2009,05,29,11,59,19.50
2009,05,29,12,00,19.50
2009,05,29,12,01,19.50
2009,05,29,12,02,19.60
2009,05,29,12,03,19.60
2009,05,29,12,04,19.60
2009,05,29,12,05,19.70
2009,05,29,12,06,19.80
2009,05,29,12,07,19.70
2009,05,29,12,08,19.70
2009,05,29,12,09,19.80
2009,05,29,12,10,19.90
2009,05,29,12,11,20.00
2009,05,29,12,12,20.10
2009,05,29,12,13,20.20
2009,05,29,12,14,20.20
2009,05,29,12,15,20.20
2009,05,29,12,16,20.20
2009,05,29,12,17,20.20
2009,05,29,12,18,20.10
2009,05,29,12,19,20.00
2009,05,29,12,20,19.90
2009,05,29,12,21,19.80
2009,05,29,12,22,19.80
2009,05,29,12,23,19.90
2009,05,29,12,24,19.90
2009,05,29,12,25,20.00
2009,05,29,12,26,20.00
2009,05,29,12,27,20.00
2009,05,29,12,28,20.10
2009,05,29,12,29,20.00
2009,05,29,12,30,20.00
2009,05,29,12,31,20.00
2009,05,29,12,32,19.90
2009,05,29,12,33,19.90
2009,05,29,12,34,19.90
2009,05,29,12,35,19.90
2009,05,29,12,36,20.00
2009,05,29,12,37,19.90
2009,05,29,12,38,19.90
2009,05,29,12,39,19.90
2009,05,29,12,40,19.90
2009,05,29,12,41,19.90
2009,05,29,12,42,19.90
2009,05,29,12,43,19.80
2009,05,29,12,44,19.80
2009,05,29,12,45,19.80
2009,05,29,12,46,19.60
2009,05,29,12,47,19.60
2009,05,29,12,48,19.50
2009,05,29,12,49,19.50
2009,05,29,12,50,19.50
2009,05,29,12,51,19.50
2009,05,29,12,52,19.60
2009,05,29,12,53,19.60
2009,05,29,12,54,19.70
2009,05,29,12,55,19.80
2009,05,29,12,56,19.80
2009,05,29,12,57,19.90
2009,05,29,12,58,19.80
2009,05,29,12,59,19.80
2009,05,29,13,00,19.70
2009,05,29,13,01,19.60
2009,05,29,13,02,19.60
2009,05,29,13,03,19.60
2009,05,29,13,04,19.60
2009,05,29,13,05,19.60
2009,05,29,13,06,19.60
2009,05,29,13,07,19.60
2009,05,29,13,08,19.60
2009,05,29,13,09,19.60
2009,05,29,13,10,19.60
2009,05,29,13,11,19.60
2009,05,29,13,12,19.60
2009,05,29,13,13,19.60
2009,05,29,13,14,19.80
2009,05,29,13,15,19.80
2009,05,29,13,16,19.80
2009,05,29,13,17,19.80
2009,05,29,13,18,19.70
2009,05,29,13,19,19.70
2009,05,29,13,20,19.70
2009,05,29,13,21,19.70
2009,05,29,13,22,19.70
2009,05,29,13,23,19.70
2009,05,29,13,24,19.80
2009,05,29,13,25,19.90
2009,05,29,13,26,19.90
2009,05,29,13,27,19.80
2009,05,29,13,28,19.60
2009,05,29,13,29,19.50
2009,05,29,13,30,19.50
2009,05,29,13,31,19.50
2009,05,29,13,32,19.60
2009,05,29,13,33,19.60
2009,05,29,13,34,19.60
2009,05,29,13,35,19.70
2009,05,29,13,36,19.80
2009,05,29,13,37,19.80
2009,05,29,13,38,19.90
2009,05,29,13,39,19.80
2009,05,29,13,40,19.70
2009,05,29,13,41,19.60
2009,05,29,13,42,19.50
2009,05,29,13,43,19.60
2009,05,29,13,44,19.50
2009,05,29,13,45,19.40
2009,05,29,13,46,19.30
2009,05,29,13,47,19.20
2009,05,29,13,48,19.10
2009,05,29,13,49,19.00
2009,05,29,13,50,18.90
2009,05,29,13,51,18.90
2009,05,29,13,52,18.90
2009,05,29,13,53,19.00
2009,05,29,13,54,19.10
2009,05,29,13,55,19.10
2009,05,29,13,56,19.20
2009,05,29,13,57,19.30
2009,05,29,13,58,19.30
2009,05,29,13,59,19.40
2009,05,29,14,00,19.50
2009,05,29,14,01,19.50
2009,05,29,14,02,19.60
2009,05,29,14,03,19.70
2009,05,29,14,04,19.70
2009,05,29,14,05,19.70
2009,05,29,14,06,19.70
2009,05,29,14,07,19.70
2009,05,29,14,08,19.70
2009,05,29,14,09,19.70
2009,05,29,14,10,19.70
2009,05,29,14,11,19.70
2009,05,29,14,12,19.70
2009,05,29,14,13,19.50
2009,05,29,14,14,19.20
2009,05,29,14,15,19.00
2009,05,29,14,16,18.80
2009,05,29,14,17,18.70
2009,05,29,14,18,18.60
2009,05,29,14,19,18.60
2009,05,29,14,20,18.60
2009,05,29,14,21,18.70
2009,05,29,14,22,18.70
2009,05,29,14,23,18.70
2009,05,29,14,24,18.70
2009,05,29,14,25,18.70
2009,05,29,14,26,18.70
2009,05,29,14,27,18.80
2009,05,29,14,28,18.80
2009,05,29,14,29,18.90
2009,05,29,14,30,18.90
2009,05,29,14,31,18.90
2009,05,29,14,32,18.90
2009,05,29,14,33,18.90
2009,05,29,14,34,18.90
2009,05,29,14,35,18.90
2009,05,29,14,36,18.80
2009,05,29,14,37,18.80
2009,05,29,14,38,18.80
2009,05,29,14,39,18.80
2009,05,29,14,40,18.80
2009,05,29,14,41,18.70
2009,05,29,14,42,18.80
2009,05,29,14,43,18.80
2009,05,29,14,44,18.80
2009,05,29,14,45,18.90
2009,05,29,14,46,19.00
2009,05,29,14,47,19.10
2009,05,29,14,48,19.20
2009,05,29,14,49,19.20
2009,05,29,14,50,19.30
2009,05,29,14,51,19.30
2009,05,29,14,52,19.40
2009,05,29,14,53,19.60
2009,05,29,14,54,19.80
2009,05,29,14,55,19.80
2009,05,29,14,56,19.90
2009,05,29,14,57,19.90
2009,05,29,14,58,19.90
2009,05,29,14,59,20.00
2009,05,29,15,00,20.00
2009,05,29,15,01,20.00
2009,05,29,15,02,19.90
2009,05,29,15,03,19.90
2009,05,29,15,04,19.90
2009,05,29,15,05,19.90
2009,05,29,15,06,19.90
2009,05,29,15,07,20.00
2009,05,29,15,08,20.00
2009,05,29,15,09,19.90
2009,05,29,15,10,19.80
2009,05,29,15,11,19.80
2009,05,29,15,12,19.70
2009,05,29,15,13,19.60
2009,05,29,15,14,19.50
2009,05,29,15,15,19.50
2009,05,29,15,16,19.60
2009,05,29,15,17,19.70
2009,05,29,15,18,19.80
2009,05,29,15,19,19.80
2009,05,29,15,20,19.70
2009,05,29,15,21,19.60
2009,05,29,15,22,19.40
2009,05,29,15,23,19.40
2009,05,29,15,24,19.30
2009,05,29,15,25,19.30
2009,05,29,15,26,19.30
2009,05,29,15,27,19.40
2009,05,29,15,28,19.50
2009,05,29,15,29,19.50
2009,05,29,15,30,19.60
2009,05,29,15,31,19.60
2009,05,29,15,32,19.60
2009,05,29,15,33,19.60
2009,05,29,15,34,19.70
2009,05,29,15,35,19.70
2009,05,29,15,36,19.70
2009,05,29,15,37,19.70
2009,05,29,15,38,19.70
2009,05,29,15,39,19.60
2009,05,29,15,40,19.50
2009,05,29,15,41,19.50
2009,05,29,15,42,19.50
2009,05,29,15,43,19.60
2009,05,29,15,44,19.60
2009,05,29,15,45,19.60
2009,05,29,15,46,19.70
2009,05,29,15,47,19.70
2009,05,29,15,48,19.70
2009,05,29,15,49,19.80
2009,05,29,15,50,19.90
2009,05,29,15,51,20.00
2009,05,29,15,52,20.10
2009,05,29,15,53,20.00
2009,05,29,15,54,20.00
2009,05,29,15,55,20.10
2009,05,29,15,56,20.30
2009,05,29,15,57,20.40
2009,05,29,15,58,20.50
2009,05,29,15,59,20.60
2009,05,29,16,00,20.70
2009,05,29,16,01,20.80
2009,05,29,16,02,20.90
2009,05,29,16,03,21.00
2009,05,29,16,04,21.10
2009,05,29,16,05,21.20
2009,05,29,16,06,21.30
2009,05,29,16,07,21.30
2009,05,29,16,08,21.50
2009,05,29,16,09,21.40
2009,05,29,16,10,21.40
2009,05,29,16,11,21.30
2009,05,29,16,12,21.30
2009,05,29,16,13,21.30
2009,05,29,16,14,21.30
2009,05,29,16,15,21.20
2009,05,29,16,16,21.20
2009,05,29,16,17,21.20
2009,05,29,16,18,21.20
2009,05,29,16,19,21.20
2009,05,29,16,20,21.30
2009,05,29,16,21,21.30
2009,05,29,16,22,21.40
2009,05,29,16,23,21.30
2009,05,29,16,24,21.20
2009,05,29,16,25,21.20
2009,05,29,16,26,21.10
2009,05,29,16,27,21.20
2009,05,29,16,28,21.20
2009,05,29,16,29,21.20
2009,05,29,16,30,21.20
2009,05,29,16,31,21.10
2009,05,29,16,32,21.10
2009,05,29,16,33,21.10
2009,05,29,16,34,21.20
2009,05,29,16,35,21.20
2009,05,29,16,36,21.10
2009,05,29,16,37,21.10
2009,05,29,16,38,21.00
2009,05,29,16,39,20.90
2009,05,29,16,40,20.80
2009,05,29,16,41,20.60
2009,05,29,16,42,20.60
2009,05,29,16,43,20.50
2009,05,29,16,44,20.50
2009,05,29,16,45,20.40
2009,05,29,16,46,20.40
2009,05,29,16,47,20.50
2009,05,29,16,48,20.60
2009,05,29,16,49,20.70
2009,05,29,16,50,20.80
2009,05,29,16,51,20.80
2009,05,29,16,52,20.90
2009,05,29,16,53,20.90
2009,05,29,16,54,21.00
2009,05,29,16,55,21.00
2009,05,29,16,56,21.00
2009,05,29,16,57,21.00
2009,05,29,16,58,21.10
2009,05,29,16,59,21.10
2009,05,29,17,00,21.20
2009,05,29,17,01,21.20
2009,05,29,17,02,21.10
2009,05,29,17,03,21.00
2009,05,29,17,04,21.10
2009,05,29,17,05,21.10
2009,05,29,17,06,21.00
2009,05,29,17,07,20.90
2009,05,29,17,08,20.70
2009,05,29,17,09,20.60
2009,05,29,17,10,20.60
2009,05,29,17,11,20.60
2009,05,29,17,12,20.60
2009,05,29,17,13,20.50
2009,05,29,17,14,20.50
2009,05,29,17,15,20.50
2009,05,29,17,16,20.50
2009,05,29,17,17,20.60
2009,05,29,17,18,20.60
2009,05,29,17,19,20.70
2009,05,29,17,20,20.70
2009,05,29,17,21,20.80
2009,05,29,17,22,20.80
2009,05,29,17,23,20.90
2009,05,29,17,24,20.90
2009,05,29,17,25,20.90
2009,05,29,17,26,21.00
2009,05,29,17,27,20.90
2009,05,29,17,28,20.80
2009,05,29,17,29,20.80
2009,05,29,17,30,20.70
2009,05,29,17,31,20.60
2009,05,29,17,32,20.70
2009,05,29,17,33,20.80